www.pogodaiklimat.ru

Погода и климат >> Архив погоды >> Россия >> Оренбургская область >> Первомайский


ПОГОДА в Первомайском

  • Прогноз погоды в Первомайском
  • Монитор погоды в Первомайском

АРХИВ ПОГОДЫ в Первомайском

Время (UTC), дата Ветер
(напр.,м/с)
 
Видим.   Явления Облачность Т
(С)
Тd
(С)
f
(%)
Тe
(С)
Тes
(С)
Комфортность P
(гПа)
Po
(гПа)
Тmin
(С)
Tmax
(С)
R
(мм)
R24
(мм)
S
(см)
21 19.03 В 1 10 км ясно -5.4 -6.5 92 -8 -8 1028.2 1019.1
00 20.03 штиль 0 10 км [диам. изморози 1 мм] ясно -7.8 -8.9 92 -9 -9 1027.7 1018.6
03 20.03 штиль 0 10 км [диам. изморози 1 мм] ясно -9.4 -10.7 90 -10 -10 1027.8 1018.6 -10.1 29
06 20.03 В 1 20 км ясно -2.1 -7.9 64 -4 +3 1027.4 1018.5
09 20.03 СВ 1 20 км ясно +3.3 -4.9 55 +2 +13 опасность
простуды
1026.5 1017.8
12 20.03 С 1 20 км ясно +4.3 -4.8 52 +4 +8 1025.7 1017.0
15 20.03 штиль 0 10 км 1/0
[Ci fib]
+1.1 -4.5 66 0 0 1025.3 1016.4 +5.2
18 20.03 штиль 0 10 км ясно -4.6 -6.5 87 -6 -6 1025.2 1016.2
21 20.03 штиль 0 10 км ясно -6.5 -7.7 91 -7 -7 1024.0 1014.9
00 21.03 штиль 0 10 км 4/0
[Ci fib]
-9.4 -10.6 91 -10 -10 1023.4 1014.3
03 21.03 штиль 0 10 км [диам. изморози 1 мм] 3/0
[Ac lent]
-10.4 -11.9 89 -11 -11 1022.7 1013.5 -10.4 28
06 21.03 В 1 20 км ясно -2.7 -8.2 66 -5 +2 1022.1 1013.2 -10.4
09 21.03 Ю 2 20 км ясно +1.2 -5.3 62 -2 +7 1021.4 1012.6
12 21.03 Ю 1 20 км ясно +2.4 -4.5 60 +1 +5 1020.1 1011.4
15 21.03 Ю 1 4000 м дымка ясно -1.0 -4.7 76 -3 -3 1019.5 1010.7 +3.9
18 21.03 штиль 0 4000 м дымка ясно -4.6 -6.1 89 -6 -6 1019.9 1010.9
21 21.03 штиль 0 4000 м дымка [диам. изморози 1 мм] ясно -6.7 -7.7 93 -8 -8 1019.0 1010.0
00 22.03 С 1 4000 м дымка [диам. изморози 1 мм] 9/0
[Ac und]
-6.3 -7.4 92 -9 -9 1018.5 1009.5
03 22.03 штиль 0 4000 м дымка 10/0
[Ac As]
-4.8 -6.4 89 -6 -6 1018.1 1009.1 -7.4 27
06 22.03 Ю 1 2000 м дымка 10/10 240 м
[St]
-1.2 -3.2 86 -3 -3 1017.7 1008.9
09 22.03 Ю 2 4000 м дымка 10/0
[As op]
-0.0 -2.7 82 -4 -2 1016.9 1008.1
12 22.03 В 2 20 км 8/0
[Ac cast Ci fib]
+2.1 -2.4 72 -1 +1 1014.8 1006.1
15 22.03 ЮВ 4 10 км 10/0
[Ac As]
+1.2 -3.6 70 -4 -4 1013.1 1004.4 +2.3
18 22.03 ЮВ 4 10 км слаб. дождь 10/10 630 м
[Sc]
+1.2 -3.3 72 -4 -4 1013.1 1004.3
21 22.03 Ю 4 10 км {снег, дождь} 10/10 500 м
[Sc]
+0.9 -2.0 81 -4 -4 1012.3 1003.6
00 23.03 З 1 4000 м дымка {снег, дождь} 10/10 600 м
[Sc]
-0.6 -1.5 94 -3 -3 1013.0 1004.2
03 23.03 ЮЗ 1 10 км 10/8 600 м
[Sc As op]
+0.1 -2.2 84 -2 -2 1014.1 1005.3 -0.7 0.0 27
06 23.03 Ю 2 200 м туман {дождь} ?/? -1.7 -2.4 95 -6 -6 1016.7 1007.8 -1.9
09 23.03 ЮВ 2 4000 м дымка {туман} 10/10 240 м
[St]
-0.1 -2.6 83 -4 -4 1018.0 1009.2
12 23.03 В 2 20 км {туман} 9/0
[Ac trans Cs]
+0.5 -2.9 78 -3 -0 1019.0 1010.2
15 23.03 СВ 2 10 км 9/0
[Ac trans Cs]
-1.2 -3.1 87 -5 -5 1019.5 1010.7 +0.9 0.0
18 23.03 СВ 1 10 км 10/0
[Ac As]
-1.3 -3.1 88 -3 -3 1020.6 1011.7
21 23.03 В 2 10 км 9/0
[Ac trans]
-1.5 -3.4 87 -5 -5 1021.0 1012.1
00 24.03 В 2 10 км 10/10 240 м
[St]
-2.6 -3.9 91 -7 -7 1021.1 1012.2
03 24.03 В 1 4000 м дымка 9/3 300 м
[Sc Ac trans Ci]
-3.1 -3.8 95 -6 -5 1020.9 1012.0 -3.1 26
06 24.03 В 2 20 км 10/0
[Ac As]
-1.4 -4.4 80 -5 -3 1021.4 1012.5
09 24.03 В 3 20 км 9/0
[Ac trans Cc]
+1.3 -2.6 75 -3 +1 1018.6 1009.9
12 24.03 В 4 20 км 9/0
[Ac trans Cc]
+2.0 -2.2 74 -3 -1 1016.1 1007.4
15 24.03 В 3 4000 м слаб. дождь 10/0
[As op]
+1.4 -1.6 80 -3 -3 1013.8 1005.1 +2.8 0.0
18 24.03 В 5 4000 м слаб. дождь 10/0
[As op]
+2.6 -1.6 74 -3 -3 1010.0 1001.4
21 24.03 В 4
{11}
4000 м слаб. дождь 10/0
[As op]
+2.4 -0.8 79 -2 -2 1005.0 996.4
00 25.03 Ю 2 2000 м слаб. снег {дождь} 10/10 240 м
[Frnb Ns]
+0.3 -0.4 95 -3 -3 1001.8 993.2
03 25.03 ЮЗ 5-13
{13}
2000 м слаб. снег [диам. отлож. мокр. снега 3 мм] 10/8 240 м
[Frnb As op]
-0.3 -0.9 96 -7 -7 1001.2 992.5 -0.3 7 26
06 25.03 Ю 7-12
{13}
4000 м дымка {снег} 10/8 300 м
[Frnb As op]
+0.1 -1.2 91 -7 -7 1001.9 993.2 -1.1
09 25.03 ЮЗ 6-12
{15}
4000 м слаб. снег {дождь} 10/6 300 м
[Sc As trans]
+1.3 -1.1 84 -5 -4 1004.2 995.6
12 25.03 ЮЗ 5-10
{14}
4000 м слаб. снег {дождь} 10/8 420 м
[Sc As op]
+0.8 -1.5 85 -5 -5 1006.5 997.8
15 25.03 ЮЗ 5
{11}
4000 м слаб. снег 10/8 420 м
[Frnb As op]
+0.8 -0.9 88 -5 -5 1007.8 999.1 +1.8 0.4
18 25.03 ЮЗ 3 10 км {снег} 8/0
[Ac trans Ci fib]
+0.6 -1.5 86 -4 -4 1009.7 1001.0
21 25.03 ЮЗ 2 10 км 3/0
[Ci fib]
-1.3 -3.2 87 -5 -5 1012.4 1003.7
00 26.03 ЮЗ 2 10 км 1/0
[Ci fib]
-3.2 -4.4 91 -7 -7 1014.6 1005.7
03 26.03 ЮЗ 2 20 км 1/0
[Ci fib]
-4.3 -5.5 91 -9 -8 1016.8 1007.9 -4.5 0.0 25
06 26.03 Ю 3 20 км 4/0
[Ci fib]
-0.3 -4.4 74 -5 -0 1018.9 1010.1
09 26.03 Ю 2 20 км 8/0
[Cc]
+2.1 -3.0 69 -1 +7 1019.7 1011.0
12 26.03 Ю 3 20 км 3/0
[Ci fib]
+2.1 -2.2 73 -2 +1 1019.8 1011.1
15 26.03 ЮВ 5 10 км 10/0
[Ac As]
+1.3 -2.7 75 -4 -4 1018.3 1009.5 +2.8
18 26.03 ЮВ 6-10
{11}
10 км 9/3 600 м
[Sc Ac und]
+1.2 -2.8 75 -5 -5 1018.8 1010.0

 

Местоположение метеостанции Первомайский (Оренбургская область, Россия): широта 51.90 долгота 51.65 высота над уровнем моря 70 м.

В архиве по умолчанию представлена погода в Первомайском за последнюю неделю. Архивные данные за месяц целиком и за предыдущие месяцы, начиная с января 2011 года, Вы можете получить, выбрав интересующий диапазон дат из раскрывающегося списка и нажав кнопку "Ввод!".


*Определитесь, кто Вы:
робот инопланетянин человек

Внимание! Время в таблицах - всемирное. Для получения местного времени необходимо прибавить поправку, которая равна 5 ч.

Смотрите также архив погоды в соседних городах и на ближайших метеорологических станциях:

Погода в Январцево (Западно-Казахстанская область, Казахстан) (57 км)
Погода в Уральске (Западно-Казахстанская область, Казахстан) (77 км)
Погода в Авангард Зерносовхозе (Самарская область, Россия) (84 км)
Погода в Перелюбе (Саратовская область, Россия) (91 км)
Погода в Большая Глушица (Самарская область, Россия) (97 км)
Погода в Бузулуке (Оренбургская область, Россия) (109 км)
Погода в Сорочинске (Оренбургская область, Россия) (117 км)
Погода в Анкаты (Западно-Казахстанская область, Казахстан) (121 км)
Погода в Аксае (Западно-Казахстанская область, Казахстан) (123 км)
Погода в Илеке (Оренбургская область, Россия) (126 км)

Пояснения к столбцам:

Ветер - указаны скорость ветра в м/с - средняя за 10 мин, порывы в срок и между сроками (в фигурных скобках) и направление, откуда дует ветер: С - северный, СВ - северо-восточный, В - восточный, ЮВ - юго-восточный, Ю - южный, ЮЗ - юго-западный, З - западный, СЗ - северо-западный.
Видимость - горизонтальная дальность видимости в метрах или километрах. При видимости от 1 до 10 км при отсутствии осадков обычно наблюдается дымка, при ухудшении видимости до 1 км и менее - туман. В сухую погоду видимость может ухудшаться дымом, пылью или мглою.
Явления - указаны атмосферные явления, наблюдавшиеся в срок или в последний час перед сроком; фигурными скобками обозначены явления, наблюдавшиеся между сроками (за 1-3 часа до срока); квадратными скобками обозначены град или гололедные отложения с указанием их диаметра в мм.
Облачность - указаны через наклонную черту общая и нижняя облачность в баллах и высота нижней границы облаков в метрах; квадратными скобками обозначены формы облаков: Ci - перистые, Cs - перисто-слоистые, Cc - перисто-кучевые, Ac - высококучевые, As - высокослоистые, Sc - слоисто-кучевые, Ns - слоисто-дождевые, Cu - кучевые, Cb - кучево-дождевые. Подробнее классификацию облаков см. в Атласе облаков (PDF).
T - Температура воздуха - температура, измеренная на высоте 2 м над землей.
Td - Температура точки росы - температура, при понижении до которой содержащийся в воздухе водяной пар достигнет насыщения.
f - Относительная влажность воздуха - влажноcть воздуха, измеренная на высоте 2 м над землей.
Te - Эффективная температура - температура, которую ощущает одетый по сезону человек в тени. Характеристика душности погоды. При расчете учитывается влияние влажности воздуха и скорости ветра на теплоощущения человека.
Tes - Эффективная температура на солнце - температура, которую ощущает человек, с поправкой на солнечный нагрев. Характеристика знойности погоды. Зависит от высоты солнца над горизонтом, облачности и скорости ветра. Ночью, в пасмурную погоду, а также при ветре 12 м/с и более поправка равна нулю.
P - Атмосферное давление - приведенное к уровню моря атмосферное давление.
Po - Атмосферное давление - измеренное на уровне метеостанции атмосферное давление.
Tmin - Минимальная температура - минимум температуры воздуха на высоте 2 м над землей.
Tmax - Максимальная температура - максимум температуры воздуха на высоте 2 м над землей.
R - Количество осадков - Количество выпавших осадков за период времени, мм. При наведении курсора мыши на число - период времени, за который выпало указанное количество осадков.
R24 - Количество осадков - Количество выпавших осадков за 24 часа, мм.
S - Снежный покров - Высота снежного покрова, см. При наведении курсора мыши на число - состояние снежного покрова и степень покрытия местности в баллах.